Beech Lake Weather Center

Moon Phase Calendar



Beech Lake Water Level
Online Cameras

 


      

Current Conditions in Carroll
2/25/2024 6:32:06 AM

36°F
Feels Like 31
Clouds
Humidity
74%
Pressure
30.06"
Wind
5.8 mph (SSE)
Dew Point
29°F
UV Index
0/10 (Low)
Visibility
6 mi

Hourly Forecast

Date & Time Sun, Feb 25
6:00 AM
Sun, Feb 25
7:00 AM
Sun, Feb 25
8:00 AM
Sun, Feb 25
9:00 AM
Sun, Feb 25
10:00 AM
Sun, Feb 25
11:00 AM
Sun, Feb 25
12:00 PM
Sun, Feb 25
1:00 PM
Sun, Feb 25
2:00 PM
Sun, Feb 25
3:00 PM
Sun, Feb 25
4:00 PM
Sun, Feb 25
5:00 PM
Sun, Feb 25
6:00 PM
Sun, Feb 25
7:00 PM
Sun, Feb 25
8:00 PM
Sun, Feb 25
9:00 PM
Sun, Feb 25
10:00 PM
Sun, Feb 25
11:00 PM
Mon, Feb 26
12:00 AM
Mon, Feb 26
1:00 AM
Mon, Feb 26
2:00 AM
Mon, Feb 26
3:00 AM
Mon, Feb 26
4:00 AM
Mon, Feb 26
5:00 AM
Mon, Feb 26
6:00 AM
Mon, Feb 26
7:00 AM
Mon, Feb 26
8:00 AM
Mon, Feb 26
9:00 AM
Mon, Feb 26
10:00 AM
Mon, Feb 26
11:00 AM
Mon, Feb 26
12:00 PM
Mon, Feb 26
1:00 PM
Mon, Feb 26
2:00 PM
Mon, Feb 26
3:00 PM
Mon, Feb 26
4:00 PM
Mon, Feb 26
5:00 PM
Mon, Feb 26
6:00 PM
Mon, Feb 26
7:00 PM
Mon, Feb 26
8:00 PM
Mon, Feb 26
9:00 PM
Mon, Feb 26
10:00 PM
Mon, Feb 26
11:00 PM
Tue, Feb 27
12:00 AM
Tue, Feb 27
1:00 AM
Tue, Feb 27
2:00 AM
Tue, Feb 27
3:00 AM
Tue, Feb 27
4:00 AM
Tue, Feb 27
5:00 AM
Condition
Clouds

Clouds

Clouds

Clouds

Clouds

Clouds

Clouds

Clear

Clear

Clear

Clear

Clear

Clear

Clear

Clear

Clear

Clear

Clear

Clear

Clear

Clouds

Clouds

Clouds

Clouds

Clouds

Clouds

Clouds

Clouds

Clouds

Clouds

Clouds

Clouds

Clouds

Clouds

Clouds

Clouds

Clouds

Clouds

Clouds

Clouds

Rain

Rain

Clouds

Clouds

Rain

Clouds

Clouds

Clouds
Temperature 36°F36°F37°F41°F45°F52°F60°F63°F65°F65°F64°F61°F56°F54°F53°F52°F52°F53°F53°F53°F53°F54°F53°F52°F52°F51°F53°F56°F60°F63°F66°F68°F68°F68°F66°F65°F65°F65°F64°F63°F63°F63°F63°F63°F63°F63°F63°F63°F
Feels Like 30°F30°F30°F33°F39°F50°F58°F61°F63°F64°F63°F60°F55°F53°F51°F51°F51°F52°F52°F51°F52°F53°F52°F51°F51°F50°F52°F55°F59°F63°F65°F67°F67°F67°F66°F64°F64°F64°F64°F63°F63°F63°F63°F63°F63°F63°F63°F63°F
Cloudiness 80%100%99%96%94%93%77%8%8%9%10%8%7%0%0%0%0%0%0%3%17%34%38%45%50%81%90%93%91%90%91%96%98%99%99%99%99%100%100%100%100%100%100%100%100%100%100%100%
Visibility 6 mi6 mi6 mi6 mi6 mi6 mi6 mi6 mi6 mi6 mi6 mi6 mi6 mi6 mi6 mi6 mi6 mi6 mi6 mi6 mi6 mi6 mi6 mi6 mi6 mi6 mi6 mi6 mi6 mi6 mi6 mi6 mi6 mi6 mi6 mi6 mi6 mi6 mi6 mi6 mi6 mi6 mi6 mi6 mi6 mi6 mi6 mi6 mi
Precipitation 0%0%0%0%0%0%0%0%0%0%0%0%0%0%0%0%5%5%5%5%3%0%0%0%0%0%0%0%0%0%0%0%0%0%0%0%0%0%0%0%23%57%62%67%67%63%55%45%
Humidity 75%74%73%70%66%59%52%48%50%52%55%60%69%74%77%78%77%74%74%76%76%75%78%81%82%84%82%76%72%68%66%65%65%69%73%75%74%75%81%85%87%88%88%88%90%90%90%90%
Dew Point 29°F29°F30°F32°F35°F38°F42°F43°F46°F48°F48°F48°F47°F46°F46°F46°F46°F45°F45°F45°F46°F47°F47°F47°F47°F47°F48°F49°F51°F53°F54°F55°F56°F57°F57°F57°F56°F57°F58°F58°F59°F59°F60°F60°F60°F60°F60°F60°F
Pressure 30.06"30.06"30.06"30.06"30.06"30.03"30"29.97"29.94"29.91"29.91"29.91"29.94"29.94"29.97"29.97"29.97"29.97"29.97"29.97"29.94"29.94"29.94"29.97"29.97"29.97"29.97"29.97"29.97"29.94"29.91"29.88"29.85"29.83"29.8"29.8"29.8"29.8"29.8"29.77"29.77"29.77"29.74"29.71"29.71"29.71"29.71"29.71"
Wind Speed 7.4 mph7.8 mph9.8 mph13.4 mph14.4 mph15.5 mph16.4 mph16.5 mph15.1 mph14.4 mph14 mph12.1 mph9 mph8 mph8.1 mph8.6 mph10.4 mph12.1 mph11.9 mph11.4 mph10.7 mph10.5 mph10.1 mph9.4 mph9.4 mph9.3 mph9.1 mph10.5 mph11.2 mph11.9 mph12.5 mph13.5 mph14.8 mph13.8 mph13.8 mph13.6 mph12.5 mph11.8 mph11.2 mph12.6 mph13.8 mph15.1 mph16.5 mph16.7 mph16.1 mph16.4 mph16.2 mph16.7 mph
Wind
Direction
163°
SSE
173°
S
180°
S
184°
S
187°
S
193°
SSW
198°
SSW
208°
SSW
212°
SSW
213°
SSW
217°
SW
214°
SW
207°
SSW
201°
SSW
195°
SSW
191°
S
192°
SSW
197°
SSW
198°
SSW
197°
SSW
200°
SSW
209°
SSW
206°
SSW
199°
SSW
196°
SSW
193°
SSW
191°
S
196°
SSW
193°
SSW
193°
SSW
187°
S
184°
S
186°
S
179°
S
172°
S
177°
S
177°
S
188°
S
185°
S
181°
S
190°
S
194°
SSW
193°
SSW
196°
SSW
197°
SSW
199°
SSW
200°
SSW
198°
SSW

Daily Forecast

Date High Low Precip. Humidity
Today
Feb 25

Clouds
65 °F
36 °F
5%
52%
Monday
Feb 26

Rain
68 °F
51 °F
57%
66%
Tuesday
Feb 27

Rain
72 °F
62 °F
78%
75%
Wednesday
Feb 28

Rain
68 °F
36 °F
100%
83%
Thursday
Feb 29

Clouds
47 °F
29 °F
0%
40%
Friday
Mar 1

Clouds
52 °F
39 °F
16%
80%
Saturday
Mar 2

Clouds
62 °F
48 °F
0%
65%
Sunday
Mar 3

Clear
68 °F
46 °F
0%
59%
Monday
Mar 4

Clouds
67 °F
50 °F
0%
54%
Tuesday
Mar 5

Rain
57 °F
51 °F
100%
79%
Wednesday
Mar 6

Rain
49 °F
40 °F
24%
76%
Thursday
Mar 7

Clear
52 °F
32 °F
0%
54%
Friday
Mar 8

Clouds
48 °F
34 °F
0%
52%
Saturday
Mar 9

Clear
54 °F
33 °F
0%
43%
Sunday
Mar 10

Rain
47 °F
42 °F
100%
93%
Monday
Mar 11

Clouds
51 °F
43 °F
0%
65%

Temperature 8-14 Day Outlook



Precipitation 8-14 Day Outlook




Quick Links
Beech Lake News
Beech Lake Photos
Beech Lake Videos




About Us
Contact Us
Site Map
Search Site
Advertise With Us
   
Beech.LakesOnline.com
THE BEECH LAKE WEBSITE

Copyright 2024, Lakes Online
Privacy    |    Legal